| time (UTC) | temp F | wind direction | speed MPH | gust MPH | rain 1hr in | rain 24hr in | rain mn in | humidity % | barometer mb |
| 20260507114346 | 44 | 287 | 0.0 | 0.0 | 0.00 | 0.09 | 0.00 | 76 | 1013.4 |
| 20260507113341 | 43 | 287 | 0.0 | 0.0 | 0.00 | 0.11 | 0.00 | 76 | 1013.2 |
| 20260507112317 | 42 | 287 | 0.0 | 0.0 | 0.00 | 0.12 | 0.00 | 75 | 1013.2 |
| 20260507111304 | 43 | 287 | 0.0 | 0.0 | 0.00 | 0.13 | 0.00 | 75 | 1013.0 |
| 20260507110306 | 43 | 287 | 0.0 | 0.0 | 0.00 | 0.14 | 0.00 | 75 | 1012.8 |
| 20260507105248 | 43 | 287 | 0.0 | 0.0 | 0.00 | 0.15 | 0.00 | 75 | 1012.8 |
| 20260507104249 | 43 | 287 | 0.0 | 0.0 | 0.00 | 0.15 | 0.00 | 74 | 1012.7 |
| 20260507102126 | 43 | 287 | 0.0 | 0.0 | 0.00 | 0.16 | 0.00 | 72 | 1012.5 |
| 20260507101132 | 44 | 287 | 0.0 | 0.0 | 0.00 | 0.16 | 0.00 | 72 | 1012.4 |
| 20260507100126 | 44 | 287 | 0.0 | 0.0 | 0.00 | 0.16 | 0.00 | 72 | 1012.3 |
| 20260507095058 | 45 | 287 | 0.0 | 0.0 | 0.00 | 0.16 | 0.00 | 70 | 1012.2 |
| 20260507094115 | 45 | 284 | 0.0 | 1.0 | 0.00 | 0.16 | 0.00 | 68 | 1012.2 |
| 20260507093131 | 46 | 278 | 0.0 | 0.0 | 0.00 | 0.16 | 0.00 | 67 | 1012.2 |
| 20260507092142 | 47 | 278 | 0.0 | 1.0 | 0.00 | 0.16 | 0.00 | 65 | 1012.1 |
| 20260507091120 | 47 | 286 | 0.0 | 0.0 | 0.00 | 0.16 | 0.00 | 64 | 1012.0 |
| 20260507090103 | 48 | 287 | 0.0 | 0.0 | 0.00 | 0.16 | 0.00 | 63 | 1012.0 |
| 20260507085053 | 48 | 300 | 0.0 | 0.0 | 0.00 | 0.16 | 0.00 | 63 | 1012.1 |
| 20260507084107 | 49 | 262 | 0.0 | 0.0 | 0.00 | 0.16 | 0.00 | 63 | 1012.0 |
| 20260507083046 | 49 | 259 | 0.0 | 2.0 | 0.00 | 0.16 | 0.00 | 61 | 1012.2 |
| 20260507082045 | 49 | 290 | 0.0 | 5.0 | 0.00 | 0.16 | 0.00 | 61 | 1012.3 |
| 20260507081043 | 49 | 292 | 1.0 | 5.0 | 0.00 | 0.16 | 0.00 | 60 | 1012.3 |
| 20260507080038 | 49 | 344 | 1.0 | 5.0 | 0.00 | 0.16 | 0.00 | 61 | 1012.3 |
| 20260507075043 | 49 | 277 | 1.0 | 5.0 | 0.00 | 0.16 | 0.00 | 60 | 1012.3 |
| 20260507074107 | 49 | 271 | 1.0 | 4.0 | 0.00 | 0.16 | 0.00 | 61 | 1012.2 |
| 20260507073132 | 49 | 259 | 0.0 | 3.0 | 0.00 | 0.16 | 0.00 | 62 | 1012.3 |
| 20260507072131 | 49 | 271 | 0.0 | 2.0 | 0.00 | 0.16 | 0.00 | 63 | 1012.2 |
| 20260507071118 | 49 | 267 | 0.0 | 1.0 | 0.00 | 0.16 | 0.00 | 62 | 1012.3 |
| 20260507064932 | 49 | 279 | 1.0 | 7.0 | 0.00 | 0.16 | 0.00 | 60 | 1012.4 |
| 20260507062804 | 50 | 279 | 1.0 | 6.0 | 0.00 | 0.16 | 0.00 | 61 | 1012.5 |
| 20260507061736 | 50 | 288 | 1.0 | 6.0 | 0.00 | 0.16 | 0.00 | 60 | 1012.6 |
| 20260507060758 | 51 | 294 | 1.0 | 6.0 | 0.00 | 0.16 | 0.00 | 59 | 1012.4 |
| 20260507055736 | 51 | 292 | 1.0 | 6.0 | 0.00 | 0.16 | 0.00 | 60 | 1012.5 |
| 20260507054802 | 51 | 254 | 0.0 | 7.0 | 0.00 | 0.16 | 0.00 | 59 | 1012.5 |
| 20260507053812 | 51 | 308 | 1.0 | 7.0 | 0.00 | 0.16 | 0.00 | 60 | 1012.4 |
| 20260507052834 | 51 | 230 | 0.0 | 3.0 | 0.00 | 0.16 | 0.00 | 61 | 1012.6 |
| 20260507051835 | 51 | 268 | 0.0 | 1.0 | 0.00 | 0.16 | 0.00 | 61 | 1012.5 |
| 20260507050859 | 52 | 261 | 0.0 | 0.0 | 0.00 | 0.16 | 0.00 | 63 | 1012.5 |
| 20260507045904 | 52 | 288 | 0.0 | 0.0 | 0.00 | 0.16 | 0.00 | 61 | 1012.6 |
| 20260507044912 | 52 | 285 | 0.0 | 2.0 | 0.00 | 0.16 | 0.00 | 59 | 1012.7 |
| 20260507043842 | 52 | 282 | 0.0 | 0.0 | 0.00 | 0.16 | 0.00 | 61 | 1012.8 |
| 20260507042827 | 52 | 277 | 1.0 | 5.0 | 0.00 | 0.16 | 0.00 | 62 | 1012.5 |
| 20260507041838 | 52 | 270 | 0.0 | 5.0 | 0.00 | 0.16 | 0.00 | 63 | 1012.7 |
| 20260507035748 | 53 | 258 | 1.0 | 3.0 | 0.00 | 0.16 | 0.17 | 64 | 1012.5 |
| 20260507034742 | 53 | 253 | 1.0 | 6.0 | 0.00 | 0.16 | 0.17 | 64 | 1012.3 |
| 20260507033724 | 53 | 273 | 1.0 | 6.0 | 0.00 | 0.16 | 0.17 | 67 | 1012.4 |
| 20260507032728 | 53 | 265 | 0.0 | 4.0 | 0.00 | 0.16 | 0.17 | 69 | 1012.4 |
| 20260507031752 | 53 | 301 | 1.0 | 4.0 | 0.00 | 0.16 | 0.17 | 69 | 1012.5 |
| 20260507030739 | 54 | 298 | 0.0 | 3.0 | 0.00 | 0.16 | 0.17 | 70 | 1012.5 |
| 20260507025738 | 54 | 294 | 1.0 | 9.0 | 0.00 | 0.16 | 0.17 | 70 | 1012.4 |
| 20260507023532 | 54 | 269 | 1.0 | 9.0 | 0.00 | 0.16 | 0.17 | 71 | 1011.6 |
| 20260507022515 | 54 | 324 | 1.0 | 8.0 | 0.00 | 0.16 | 0.17 | 72 | 1011.4 |
| 20260507021444 | 54 | 267 | 0.0 | 3.0 | 0.00 | 0.16 | 0.17 | 72 | 1011.5 |
| 20260507020452 | 54 | 326 | 0.0 | 5.0 | 0.00 | 0.16 | 0.17 | 72 | 1011.7 |
| 20260507014334 | 54 | 284 | 0.0 | 6.0 | 0.00 | 0.16 | 0.17 | 72 | 1012.0 |
| 20260507013313 | 55 | 259 | 1.0 | 5.0 | 0.00 | 0.16 | 0.17 | 73 | 1011.7 |
| 20260507012329 | 55 | 304 | 1.0 | 3.0 | 0.00 | 0.16 | 0.17 | 73 | 1011.8 |
| 20260507011344 | 55 | 286 | 0.0 | 2.0 | 0.00 | 0.16 | 0.17 | 73 | 1011.8 |
| 20260507010349 | 55 | 297 | 1.0 | 6.0 | 0.00 | 0.16 | 0.17 | 73 | 1012.1 |
| 20260507005414 | 55 | 284 | 1.0 | 6.0 | 0.00 | 0.16 | 0.17 | 72 | 1012.3 |
| 20260507004428 | 55 | 275 | 1.0 | 1.0 | 0.00 | 0.16 | 0.17 | 73 | 1011.9 |
| 20260507003357 | 55 | 263 | 1.0 | 4.0 | 0.00 | 0.16 | 0.17 | 74 | 1011.5 |
| 20260507002358 | 55 | 243 | 1.0 | 4.0 | 0.00 | 0.16 | 0.17 | 73 | 1012.0 |
| 20260507001338 | 55 | 269 | 0.0 | 3.0 | 0.00 | 0.16 | 0.17 | 73 | 1011.6 |
| 20260507000318 | 55 | 281 | 0.0 | 3.0 | 0.00 | 0.16 | 0.17 | 74 | 1011.4 |
| 20260506235316 | 55 | 313 | 1.0 | 6.0 | 0.00 | 0.16 | 0.17 | 74 | 1011.2 |
| 20260506234339 | 55 | 277 | 2.0 | 10.0 | 0.00 | 0.16 | 0.17 | 74 | 1011.0 |
| 20260506233329 | 56 | 257 | 2.0 | 10.0 | 0.00 | 0.16 | 0.17 | 74 | 1010.7 |
| 20260506232348 | 56 | 296 | 3.0 | 8.0 | 0.00 | 0.16 | 0.17 | 75 | 1010.6 |
| 20260506231350 | 56 | 68 | 2.0 | 8.0 | 0.00 | 0.16 | 0.17 | 74 | 1010.4 |
| 20260506230403 | 57 | 264 | 1.0 | 6.0 | 0.00 | 0.16 | 0.17 | 75 | 1010.2 |
| 20260506225343 | 57 | 284 | 1.0 | 8.0 | 0.00 | 0.16 | 0.17 | 75 | 1010.4 |
| 20260506224321 | 57 | 269 | 2.0 | 8.0 | 0.00 | 0.16 | 0.17 | 75 | 1010.5 |
| 20260506223339 | 57 | 292 | 3.0 | 7.0 | 0.00 | 0.16 | 0.17 | 75 | 1010.2 |
| 20260506222306 | 57 | 280 | 3.0 | 7.0 | 0.00 | 0.16 | 0.17 | 75 | 1010.1 |
| 20260506221314 | 57 | 244 | 3.0 | 9.0 | 0.00 | 0.16 | 0.17 | 75 | 1010.1 |
| 20260506220314 | 58 | 223 | 2.0 | 9.0 | 0.00 | 0.16 | 0.17 | 75 | 1009.9 |
| 20260506215321 | 58 | 294 | 2.0 | 8.0 | 0.00 | 0.16 | 0.17 | 76 | 1009.7 |
| 20260506214309 | 58 | 288 | 2.0 | 8.0 | 0.00 | 0.16 | 0.17 | 76 | 1009.3 |
| 20260506213252 | 59 | 312 | 3.0 | 8.0 | 0.00 | 0.16 | 0.17 | 75 | 1009.2 |
| 20260506212240 | 59 | 282 | 3.0 | 13.0 | 0.00 | 0.16 | 0.17 | 76 | 1009.1 |
| 20260506210135 | 59 | 169 | 3.0 | 12.0 | 0.00 | 0.16 | 0.17 | 77 | 1008.8 |
| 20260506205103 | 59 | 293 | 3.0 | 9.0 | 0.00 | 0.16 | 0.17 | 76 | 1008.5 |
| 20260506204112 | 60 | 273 | 1.0 | 11.0 | 0.00 | 0.16 | 0.17 | 77 | 1008.6 |
| 20260506203102 | 61 | 276 | 3.0 | 11.0 | 0.00 | 0.16 | 0.17 | 77 | 1008.4 |
| 20260506202117 | 61 | 263 | 4.0 | 13.0 | 0.00 | 0.16 | 0.17 | 76 | 1008.4 |
| 20260506201139 | 61 | 268 | 5.0 | 13.0 | 0.00 | 0.16 | 0.17 | 76 | 1008.3 |
| 20260506200204 | 61 | 258 | 6.0 | 13.0 | 0.00 | 0.16 | 0.17 | 78 | 1008.3 |
| 20260506195222 | 61 | 248 | 4.0 | 14.0 | 0.00 | 0.16 | 0.17 | 78 | 1008.1 |
| 20260506194241 | 62 | 246 | 4.0 | 14.0 | 0.00 | 0.16 | 0.17 | 78 | 1008.0 |
| 20260506193250 | 63 | 240 | 2.0 | 7.0 | 0.00 | 0.16 | 0.17 | 78 | 1007.7 |
| 20260506191110 | 64 | 242 | 4.0 | 11.0 | 0.00 | 0.16 | 0.17 | 77 | 1007.5 |
| 20260506190114 | 63 | 163 | 3.0 | 8.0 | 0.00 | 0.16 | 0.17 | 81 | 1007.4 |
| 20260506185052 | 62 | 195 | 3.0 | 6.0 | 0.00 | 0.16 | 0.17 | 83 | 1007.5 |
| 20260506184044 | 61 | 256 | 2.0 | 6.0 | 0.00 | 0.16 | 0.17 | 86 | 1007.5 |
| 20260506183017 | 61 | 178 | 0.0 | 0.0 | 0.00 | 0.16 | 0.17 | 90 | 1007.4 |
| 20260506182001 | 61 | 178 | 1.0 | 0.0 | 0.00 | 0.16 | 0.17 | 89 | 1007.6 |
| 20260506180951 | 61 | 219 | 0.0 | 0.0 | 0.00 | 0.16 | 0.17 | 89 | 1007.6 |
| 20260506175921 | 61 | 251 | 0.0 | 1.0 | 0.00 | 0.16 | 0.17 | 89 | 1007.5 |
| 20260506174921 | 61 | 271 | 0.0 | 0.0 | 0.00 | 0.16 | 0.17 | 89 | 1007.3 |
| 20260506172748 | 61 | 164 | 1.0 | 3.0 | 0.00 | 0.16 | 0.17 | 89 | 1007.3 |
| 20260506171741 | 61 | 201 | 1.0 | 3.0 | 0.00 | 0.16 | 0.17 | 89 | 1007.2 |
| 20260506170744 | 60 | 184 | 1.0 | 3.0 | 0.00 | 0.16 | 0.17 | 89 | 1007.1 |
| 20260506165809 | 60 | 181 | 1.0 | 3.0 | 0.00 | 0.16 | 0.17 | 90 | 1007.1 |
| 20260506164833 | 60 | 144 | 1.0 | 3.0 | 0.00 | 0.16 | 0.17 | 90 | 1007.2 |
| 20260506163857 | 60 | 193 | 0.0 | 3.0 | 0.00 | 0.16 | 0.17 | 89 | 1007.1 |
| 20260506162902 | 60 | 256 | 0.0 | 0.0 | 0.00 | 0.16 | 0.17 | 90 | 1007.3 |
| 20260506161910 | 60 | 256 | 0.0 | 0.0 | 0.01 | 0.16 | 0.17 | 90 | 1007.4 |
| 20260506155751 | 60 | 243 | 0.0 | 1.0 | 0.00 | 0.16 | 0.16 | 89 | 1007.3 |
| 20260506154753 | 60 | 219 | 0.0 | 0.0 | 0.00 | 0.16 | 0.16 | 90 | 1007.2 |
| 20260506153815 | 60 | 219 | 0.0 | 0.0 | 0.00 | 0.16 | 0.16 | 90 | 1007.1 |
| 20260506152829 | 60 | 273 | 0.0 | 0.0 | 0.00 | 0.16 | 0.16 | 90 | 1007.0 |
| 20260506151809 | 59 | 256 | 1.0 | 3.0 | 0.00 | 0.16 | 0.16 | 90 | 1006.9 |
| 20260506150835 | 59 | 288 | 0.0 | 0.0 | 0.00 | 0.16 | 0.16 | 91 | 1006.7 |
| 20260506145847 | 60 | 288 | 0.0 | 0.0 | 0.00 | 0.16 | 0.16 | 90 | 1006.7 |
| 20260506144908 | 60 | 288 | 0.0 | 0.0 | 0.00 | 0.16 | 0.16 | 91 | 1006.7 |
| 20260506143914 | 60 | 288 | 0.0 | 0.0 | 0.00 | 0.16 | 0.16 | 91 | 1006.5 |
| 20260506141730 | 58 | 288 | 0.0 | 0.0 | 0.00 | 0.16 | 0.16 | 91 | 1006.4 |
| 20260506140742 | 58 | 288 | 0.0 | 0.0 | 0.00 | 0.16 | 0.16 | 91 | 1006.6 |
| 20260506134659 | 58 | 288 | 0.0 | 0.0 | 0.05 | 0.16 | 0.16 | 91 | 1006.8 |
| 20260506133720 | 58 | 288 | 0.0 | 0.0 | 0.05 | 0.14 | 0.16 | 90 | 1007.0 |
| 20260506132703 | 58 | 288 | 0.0 | 0.0 | 0.04 | 0.14 | 0.15 | 91 | 1006.9 |
| 20260506131628 | 57 | 288 | 0.0 | 0.0 | 0.04 | 0.13 | 0.13 | 90 | 1006.9 |
| 20260506130625 | 57 | 288 | 0.0 | 0.0 | 0.01 | 0.13 | 0.13 | 90 | 1006.9 |
| 20260506125614 | 57 | 288 | 0.0 | 0.0 | 0.01 | 0.13 | 0.13 | 90 | 1006.9 |
| 20260506123454 | 57 | 288 | 0.0 | 0.0 | 0.05 | 0.12 | 0.12 | 90 | 1006.9 |
| 20260506121343 | 57 | 288 | 0.0 | 0.0 | 0.04 | 0.09 | 0.10 | 90 | 1006.7 |